Flag for Austria Weather past 2 weeks in Kapfenberg, Styria, Austria

Now
48 °F

Sprinkles. Partly cloudy.


Feels Like: 48 °F
Forecast: 35 / 56 °F
Wind: 2 mph from South

Location: Zeltweg


UV Index: 0 (Low)

Visibility: 6 mi


Pressure: 29.74 "Hg

Humidity: 94%

Dew point: 46 °F

Location of KapfenbergLocation

Historic Weather in Kapfenberg

°F

Kapfenberg temperature yesterday

Maximum temperature yesterday: 57 °F (at 2:50 PM)
Minimum temperature yesterday: 37 °F (at 4:50 AM)
Average temperature yesterday: 49 °F

Past Weeks' High & Low Weather Summary

 TemperatureHumidityPressure
High72 °F (Apr 8, 2:50 PM)100% (Apr 7, 7:20 AM)30.24 "Hg (Apr 7, 7:20 AM)
Low25 °F (Apr 18, 5:50 AM)20% (Apr 18, 1:50 PM)29.68 "Hg (Apr 18, 4:20 PM)
Average48 °F61%30.00 "Hg
* Reported Apr 4 10:50 PM — Apr 19 10:50 PM, Kapfenberg, Weather by CustomWeather, © 2014

Note: Actual official high and low records may vary slightly from our data, if they occured in-between our weather recording intervals... More about our weather records

Advertising

Historic Weather Conditions — Data for Previous 24 hours

 ConditionsComfort  
Time TempWeatherWind HumidityBarometerVisibility
10:50 PM
Apr 19
48 °FSprinkles. Partly cloudy.2 mph94%29.74 "Hg6 mi
9:50 PM48 °FPassing clouds.9 mph94%29.74 "Hg6 mi
8:50 PM48 °FBroken clouds.2 mph87%29.74 "Hg6 mi
7:50 PM50 °FBroken clouds.6 mph88%29.74 "Hg9 mi
7:20 PM52 °FBroken clouds.6 mph82%29.74 "Hg9 mi
6:50 PM52 °FSprinkles. Broken clouds.8 mph82%29.74 "Hg9 mi
6:20 PM54 °FSprinkles. Broken clouds.5 mph77%29.74 "Hg9 mi
5:50 PM54 °FThundershowers. Partly sunny.2 mph77%29.74 "Hg9 mi
5:20 PM54 °FPartly sunny.2 mph72%29.74 "Hg12 mi
4:50 PM54 °FBroken clouds.5 mph77%29.74 "Hg12 mi
4:20 PM52 °FPartly sunny.3 mph82%29.77 "Hg9 mi
3:50 PM50 °FCool.3 mph88%29.77 "Hg9 mi
3:20 PM55 °FCool.12 mph63%29.77 "Hg9 mi
2:50 PM57 °FScattered clouds.3 mph55%29.77 "Hg12 mi
2:20 PM55 °FScattered clouds.3 mph55%29.77 "Hg12 mi
1:50 PM54 °FScattered clouds.3 mph58%29.80 "Hg12 mi
1:20 PM52 °FBroken clouds.2 mph62%29.80 "Hg12 mi
12:50 PM52 °FSprinkles. Partly sunny.1 mph58%29.80 "Hg12 mi
12:20 PM50 °FBroken clouds.2 mph58%29.80 "Hg12 mi
11:50 AM50 °FSprinkles. Partly sunny.3 mph54%29.83 "Hg16 mi
11:20 AM50 °FBroken clouds.2 mph58%29.83 "Hg16 mi
10:50 AM48 °FBroken clouds.2 mph62%29.83 "Hg16 mi
10:20 AM46 °FBroken clouds.2 mph71%29.83 "Hg16 mi
9:50 AM46 °FBroken clouds.2 mph66%29.83 "Hg16 mi
9:20 AM46 °FBroken clouds.1 mph71%29.83 "Hg16 mi
8:50 AM45 °FBroken clouds.3 mph76%29.83 "Hg16 mi
8:20 AM43 °FPartly sunny.2 mph76%29.83 "Hg16 mi
7:50 AM41 °FPartly sunny.1 mph81%29.83 "Hg16 mi
7:20 AM39 °FPartly sunny.2 mph87%29.83 "Hg16 mi
6:50 AM37 °FPassing clouds.1 mph87%29.80 "Hg19 mi
5:50 AM37 °FPassing clouds.3 mph87%29.80 "Hg19 mi
4:50 AM37 °FPassing clouds.2 mph87%29.80 "Hg12 mi
Weather by CustomWeather, © 2014

See weather overview